OpenBCM V1.13 (Linux)

Packet Radio Mailbox

DB0FHN

[JN59NK Nuernberg]

 Login: GUEST





  
LU9DCE > KEP      10.03.19 19:34l 254 Lines 12358 Bytes #999 (0) @ WW
BID : 19918_LU9DCE
Read: DF7EAV DK3UZ DB1MEA GUEST
Subj: TLE 10 03
Path: DB0FHN<DB0BLO<DB0ERF<DB0RES<ON0AR<GB7CIP<N3HYM<LU3DVN<LU9DCE
Sent: 190310/1820Z 19918@LU9DCE.TOR.BA.ARG.SOAM LinBPQ6.0.18

            __    _  _  ___  ____   ___  ____    ____  ____  ____
           (  )  / )( \/ _ \(    \ / __)(  __)  (  _ \(  _ \/ ___)
           / (_/\) \/ (\__  )) D (( (__  ) _)    ) _ ( ) _ (\___ \
           \____/\____/(___/(____/ \___)(____)  (____/(____/(____/
               ESTACION DE PACKET RADIO - BUENOS AIRES (GF05OM)
                   BOLETINES INFORMATIVOS PROGRAMADOS (BIP)
                  SOPORTE TECNICO - HELLOCODELINUX@GMAIL.COM

+----------------------------------------------------------------------------+
OSCAR 7
1  7530U 74089B   19068.90694571 -.00000044 +00000-0 +36529-5 0  9997
2  7530 101.7315 037.6532 0012067 180.2332 202.0807 12.53636952027657
OSCAR 11 (UoSAT 2)
1 14781U 84021B   19069.30663308  .00000049  00000-0  12114-4 0  9996
2 14781  97.6218  98.7159 0007048 293.5055  66.5418 14.83068276883883
OSCAR 19 (LUSAT)
1 20442U 90005G   19068.90834566 -.00000009 +00000-0 +12828-4 0  9996
2 20442 098.6393 011.1322 0012915 086.6988 273.5674 14.32918872521888
EYESAT A
1 22825U 93061C   19068.88755421 -.00000009  00000-0  14387-4 0  9999
2 22825  98.8960  55.2634 0007449 296.2243  63.8172 14.30052820327541
ITAMSAT
1 22826U 93061D   19069.47229113 -.00000008  00000-0  14957-4 0  9992
2 22826  98.8902  55.8649 0007880 281.7290  78.3007 14.30385901327828
RADIO ROSTO
1 23439U 94085A   19069.23439941 -.00000050  00000-0 -22682-3 0  9997
2 23439  64.8146 278.5810 0148530 132.4671 339.4183 11.27568208996722
JAS 2
1 24278U 96046B   19068.46895090 -.00000041  00000-0 -85760-5 0  9991
2 24278  98.5214 235.6876 0351049 142.4482 220.1741 13.53089383114116
TECHSAT 1B
1 25397U 98043D   19068.90675690 -.00000002 +00000-0 +18420-4 0  9998
2 25397 098.6798 010.3242 0001256 022.5700 337.5533 14.23661343073313
ISS (ZARYA)
1 25544U 98067A   19069.56476704  .00000755  00000-0  19456-4 0  9990
2 25544  51.6421 131.5511 0004047  93.2744  48.5994 15.52797828159932
PCSAT
1 26931U 01043C   19068.89368562 -.00000033 +00000-0 +19227-4 0  9992
2 26931 067.0494 263.7861 0005362 273.7617 086.2871 14.30534503910487
SAUDISAT 1C
1 27607U 02058C   19069.17133492 -.00000023  00000-0  17669-4 0  9991
2 27607  64.5567 356.9194 0082307 275.6588  83.5133 14.75525601872203
CUTE-1
1 27844U 03031E   19068.76431412  .00000030  00000-0  33154-4 0  9997
2 27844  98.6869  78.4740 0009151 328.9919  31.0718 14.22163662813948
CUBESAT XI 4
1 27848U 03031J   19068.86854461  .00000022  00000-0  30088-4 0  9999
2 27848  98.6948  79.0534 0009237 340.5217  19.5606 14.21760848813815
MOZHAYETS 4
1 27939U 03042A   19069.49508089  .00000082  00000-0  23306-4 0  9995
2 27939  98.0228 207.3635 0013586  30.8760 329.3256 14.66759407825851
CUBESAT XI 5
1 28895U 05043F   19068.87777184 +.00000097 +00000-0 +27408-4 0  9998
2 28895 097.9416 215.1599 0015688 312.9516 047.0370 14.63636313712509
CUTE-1.7+APD II
1 32785U 08021C   19069.50830862  .00000179  00000-0  24997-4 0  9995
2 32785  97.5490  73.9568 0011863 231.0241 128.9921 14.88260151588785
DELFI C3
1 32789U 08021G   19069.14530647  .00001313  00000-0  92282-4 0  9990
2 32789  97.4780 121.7909 0013940 108.6131 251.6612 15.06705077591828
SEEDS
1 32791U 08021J   19069.02338150  .00000286  00000-0  34449-4 0  9994
2 32791  97.5304  79.3488 0012619 207.2716 152.7841 14.90748434589111
YUBELEINY
1 32953U 08025A   19069.52246215  .00000020  00000-0  75656-4 0  9994
2 32953  82.5041 207.0392 0018770 351.0054   9.0684 12.43088086489860
PRISM (HITOMI)
1 33493U 09002B   19068.70469612  .00000773  00000-0  73442-4 0  9993
2 33493  98.1229 345.8363 0015761 153.0977 207.1064 14.96530781550047
KKS-1 (KISEKI)
1 33499U 09002H   19068.89781598 +.00000060 +00000-0 +16966-4 0  9996
2 33499 098.3547 264.3505 0009563 160.2083 199.9498 14.75412240543937
SWISSCUBE
1 35932U 09051B   19068.73231113  .00000098  00000-0  33068-4 0  9993
2 35932  98.5747 231.8137 0008762 113.3663 246.8457 14.56250700502086
BEESAT
1 35933U 09051C   19069.42865828  .00000087  00000-0  30598-4 0  9990
2 35933  98.5781 234.2362 0006900 121.8707 238.3162 14.56344354502298
ITUPSAT 1
1 35935U 09051E   19069.15370949  .00000055  00000-0  23812-4 0  9993
2 35935  98.5893 234.1977 0009201 120.7545 239.4558 14.55508780502015
XIWANG-1 (HOPE-1)
1 36122U 09072B   19069.48551509 -.00000024  00000-0  47271-4 0  9996
2 36122 100.0735  76.5782 0006870 212.9070 147.1618 13.16348868443691
TISAT 1
1 36799U 10035E   19069.35702161  .00000501  00000-0  56679-4 0  9996
2 36799  98.1395 218.2747 0013328  59.0801 301.1725 14.91021632469818
JUGNU
1 37839U 11058B   19068.81070458  .00000297  00000-0  16285-4 0  9996
2 37839  19.9603 226.5299 0018938 295.3535 199.8086 14.12643177382972
SRMSAT
1 37841U 11058D   19068.92626182 +.00000312 +00000-0 +26323-4 0  9994
2 37841 019.9718 280.5219 0011863 169.6652 320.5142 14.10625973382357
M-CUBED/EXP-1 PRIME
1 37855U 11061F   19068.83354258  .00001006  00000-0  58447-4 0  9998
2 37855 101.7276 272.5921 0174343  15.6876 344.9642 15.05181366401606
HORYU 2
1 38340U 12025D   19068.54580834  .00000140  00000-0  28467-4 0  9995
2 38340  98.3420 104.0346 0012821  87.6444 272.6232 14.75675987366245
STRAND 1
1 39090U 13009E   19068.89750562 -.00000005  00000-0  13470-4 0  9995
2 39090  98.4981 276.4837 0008295 223.5519 136.5012 14.35073139315935
SOMP
1 39134U 13015E   19068.89390671 +.00001245 +00000-0 +66892-4 0  9994
2 39134 064.8651 346.9341 0021101 319.4280 040.5274 15.19880937324893
BEESAT 3
1 39135U 13015F   19068.90236766 +.00000803 +00000-0 +49964-4 0  9991
2 39135 064.8709 003.8183 0009803 289.4427 070.5639 15.17248934324560
BEESAT 2
1 39136U 13015G   19069.42965930  .00001106  00000-0  66063-4 0  9998
2 39136  64.8716   5.6347 0011222 291.1945  68.7981 15.16691229324965
CUBEBUG 1
1 39153U 13018D   19069.46889585  .00000200  00000-0  33044-4 0  9992
2 39153  97.9748 168.1922 0017540 159.2605 200.9322 14.80522327316980
ZACUBE
1 39417U 13066B   19069.17667192  .00000195  00000-0  30963-4 0  9994
2 39417  97.5691  88.2947 0059027   5.0767 355.1032 14.81065538286162
TRITON 1
1 39427U 13066M   19068.90519027 +.00000162 +00000-0 +33557-4 0  9994
2 39427 097.6666 052.5722 0115037 127.7394 233.4304 14.67788466283368
GOMX 1
1 39430U 13066Q   19069.50961975  .00000103  00000-0  27883-4 0  9998
2 39430  97.7334  32.7356 0150342 209.7503 149.5075 14.59204531281995
HUMSAT D
1 39433U 13066T   19069.42724031  .00000494  00000-0  53694-4 0  9994
2 39433  97.5678 120.9604 0029282 275.2460  84.5418 14.92100136288125
CUBEBUG 2
1 39440U 13066AA  19068.79701957 +.00000196 +00000-0 +34087-4 0  9997
2 39440 097.6013 073.2005 0081560 053.4494 307.4188 14.75802860283896
FUNCUBE 1
1 39444U 13066AE  19069.02978385  .00000249  00000-0  37011-4 0  9998
2 39444  97.5680  89.9987 0058015 359.9093   0.2101 14.81873756285029
UWE-3
1 39446U 13066AG  19069.31232325  .00000218  00000-0  35506-4 0  9992
2 39446  97.5839  80.5714 0070774  28.7774 331.7314 14.78338367284437
SPROUT
1 39770U 14029E   19069.52128487  .00000574  00000-0  69850-4 0  9992
2 39770  97.8793 173.5243 0010342  58.4754 301.7473 14.87204211259943
UNISAT 6
1 40012U 14033C   19069.20465610  .00000145  00000-0  28964-4 0  9990
2 40012  97.7727 300.0529 0059686  62.6162 298.1103 14.73934961253881
DUCHIFAT 1
1 40021U 14033M   19069.45476088  .00000482  00000-0  55132-4 0  9999
2 40021  97.9223 353.7370 0013678  26.4471 333.7442 14.90541135256617
QB50P1
1 40025U 14033R   19068.82639413  .00000235  00000-0  31016-4 0  9997
2 40025  97.9068 348.6758 0013365  36.7384 323.4746 14.88878714256314
CHUBUSAT 1
1 40300U 14070C   19069.52551109  .00000516  00000-0  25554-4 0  9999
2 40300  97.3351 146.2076 0021345  50.0324   8.1596 15.21940454240787
NUDT-PHONESAT
1 40900U 15049B   19069.49641756  .00001749  00000-0  78731-4 0  9990
2 40900  97.4396  79.8316 0013513 168.2884 344.0482 15.22351699192412
ZDPS 2A
1 40901U 15049C   19069.46893141  .00000800  00000-0  43169-4 0  9999
2 40901  97.4606  76.7490 0013040 184.4597 332.3082 15.17540288192034
ZDPS 2B
1 40902U 15049D   19069.47944175  .00000885  00000-0  47664-4 0  9992
2 40902  97.4529  74.3905 0013320 181.5718 331.1124 15.17315608192016
XW-2A
1 40903U 15049E   19069.49929581  .00001748  00000-0  43713-4 0  9999
2 40903  97.3516 111.6431 0014793 141.4732 328.8394 15.41444057194817
KAITUO 1A
1 40904U 15049F   19069.49712075  .00000203  00000-0  14267-4 0  9995
2 40904  97.4654  73.2336 0014066 189.0105 289.8451 15.15263146191821
OBJECT G
1 40905U 15049G   19069.44552443  .00000074  00000-0  76453-5 0  9994
2 40905  97.4682  70.8615 0015272 183.4257 321.3889 15.14197554191704
XW-2C
1 40906U 15049H   19069.45858319  .00000450  00000-0  27163-4 0  9998
2 40906  97.4665  73.2136 0014722 179.8651 338.6352 15.15533662191810
XW-2D
1 40907U 15049J   19069.44349817  .00000356  00000-0  22136-4 0  9996
2 40907  97.4639  72.8764 0014199 177.2938 315.3069 15.15709425191822
LILACSAT 2
1 40908U 15049K   19069.51908715  .00000205  00000-0  14954-4 0  9995
2 40908  97.4767  71.9508 0015742 182.4791 294.3505 15.13717421191656
XW-2F
1 40910U 15049M   19069.49553269  .00000780  00000-0  42692-4 0  9993
2 40910  97.4623  74.7261 0015142 170.7600 310.2647 15.17070912191825
XW-2B
1 40911U 15049N   19069.47540819  .00000805  00000-0  45742-4 0  9996
2 40911  97.4667  73.5317 0013698 177.8783 335.1093 15.15647067191726
KAITUO 1B
1 40912U 15049P   19069.48618318  .00001132  00000-0  56627-4 0  9996
2 40912  97.4511  78.1491 0015883 156.0777 357.1686 15.19355590192093
TIANWANG 1C (TW-1C)
1 40926U 15051B   19069.57374279  .00009698  00000-0  15394-3 0  9999
2 40926  97.1499 115.9537 0009710  35.2641 126.8825 15.53509941194605
